AirNav   ATP
 
 1399 users online  

11KS Squadron Field Airport
Erie, Kansas, USA


FAA INFORMATION EFFECTIVE 01 FEBRUARY 2018

Location

FAA Identifier: 11KS
Lat/Long: 37-27-39.9600N / 095-14-31.0200W
37-27.666000N / 095-14.517000W
37.4611000 / -95.2419500
(estimated)
Elevation: 947 ft. / 289 m (estimated)
From city: 8 miles S of ERIE, KS
Time zone: UTC -6 (UTC -5 during Daylight Saving Time)
Zip code: 66740

Airport Operations

Airport use: Private use. Permission required prior to landing
Activation date: 03/2017
Control tower: no
ARTCC: KANSAS CITY CENTER
FSS: COLUMBIA FLIGHT SERVICE STATION
Attendance: UNATNDD
Segmented circle: no

Airport Communications

WX ASOS at PPF (15 nm SW): 118.175 (620-336-3834)
WX ASOS at CNU (17 nm NW): 127.075 (620-431-6781)

Nearby radio navigation aids

VOR radial/distance  VOR name  Freq  Var
OSWr346/18.3OSWEGO VOR/DME117.6008E
CNUr116/19.4CHANUTE VOR/DME109.2005E

 
NDB name  Hdg/Dist  Freq  Var  ID
COFFEYVILLE030/27.121205ECFV -.-. ..-. ...-

Airport Services

Runway Information

Runway 1/19

Dimensions: 1970 x 100 ft. / 600 x 30 m
Surface: turf
RUNWAY 1  RUNWAY 19
Traffic pattern: leftleft

Airport Ownership and Management from official FAA records

Ownership: Privately-owned
Owner: KENNETH A. STEENROD
18742 MCKINNLEY LAKE ROAD
PARSONS, KS 67357
Phone 620-778-9577
Manager: SQUADRON FIELD
16650 60TH ROAD
ERIE, KS 66733

Instrument Procedures

There are no published instrument procedures at 11KS.

Some nearby airports with instrument procedures:

KPPF - Tri-City Airport (15 nm SW)
KCNU - Chanute Martin Johnson Airport (17 nm NW)
2K7 - Neodesha Municipal Airport (19 nm W)
KPTS - Atkinson Municipal Airport (24 nm E)
K88 - Allen County Airport (25 nm N)
 
Loc | Ops | Rwys | IFR | FBO | Links
Com | Nav | Svcs | Stats | Notes

AirNav Hotels Sweepstakes
 
Aerial photo
No photo
 
Airport distance calculator
Flying to Squadron Field Airport? Find the distance to fly.

From to 11KS

Sunrise and sunset
Times for 20-Feb-2018
 Local
(UTC-6)
 Zulu
(UTC)
Morning civil twilight06:3912:39
Sunrise07:0513:05
Sunset18:0400:04
Evening civil twilight18:3100:31

Current date and time
Zulu (UTC)  20-Feb-2018 23:14:34
Local (UTC-6)  20-Feb-2018 17:14:34
 
METAR
KPPF 
14nm SW 
202252Z AUTO 36011G18KT 10SM UP OVC011 M02/M03 A3014 RMK AO2 UPB28FZRAE2154 SLP213 P0000 I1000 T10221033
KCNU 
17nm NW 
202252Z AUTO 35014G19KT 10SM BKN014 BKN025 BKN120 M03/M05 A3015 RMK AO2 SLP219 T10331050
KPTS 
24nm E 
202255Z AUTO 34008KT 4SM -RA BKN009 BKN015 OVC033 00/00 A3013 RMK AO2 P0003 T00011003
KCFV 
27nm SW 
202252Z AUTO 35013KT 5SM -FZRA BR OVC012 M02/M03 A3014 RMK AO2 UPB23E27FZRAE11B27 SLP210 P0001 I1002 T10171028
TAF
KCNU 
17nm NW 
202140Z 2022/2118 34015G22KT P6SM OVC012 TEMPO 2022/2024 5SM -FZRA SCT012 OVC022 FM210000 36013KT P6SM OVC030
NOTAMs
Click for the latest NOTAMs
NOTAMs are issued by the DoD/FAA and will open in a separate window not controlled by AirNav.

 

 
 

Would you like to see your business listed on this page?

 If your business provides an interesting product or service to pilots, flight crews, aircraft, or users of the Squadron Field Airport, you should consider listing it here.  To start the listing process, click on the button below
 
Add a business
 

Other Pages about Squadron Field Airport

Update a link
 
Copyright © AirNav, LLC. All rights reserved. Privacy Policy  Contact